QAK0717 MMSD-MMTJ

Flight info

Callsign QAK0717
Flight time 1h 40m
Altitude 40000
Route ANEGO1B ANEGO UL312 SQN UT64 TOVES TOVES2B
Aircraft A359/H-SDE2E3GHIJ3J4J5LM1ORWXY/LB1D1

Departure

Time 2026-04-20 05:29
Airport Los Cabos International Airport (MMSD)

Arrival

Time 2026-04-20 07:10
Airport General Abelardo L. Rodriguez International Airport (MMTJ)
Time Latitude Longitude Altitude Speed Heading
2026-04-20 04:55 23.15777 -109.71793 393 ft 0 kts 84°
2026-04-20 05:16 23.15776 -109.71803 393 ft 3 kts 84°
2026-04-20 05:16 23.15776 -109.71824 393 ft 3 kts 95°
2026-04-20 05:16 23.15779 -109.71845 393 ft 3 kts 113°
2026-04-20 05:16 23.15790 -109.71864 393 ft 3 kts 134°
2026-04-20 05:17 23.15795 -109.71870 393 ft 1 kts 163°
2026-04-20 05:21 23.15773 -109.71862 393 ft 9 kts 160°
2026-04-20 05:22 23.15725 -109.71879 393 ft 8 kts 239°
2026-04-20 05:22 23.15682 -109.71913 393 ft 8 kts 196°
2026-04-20 05:22 23.15618 -109.71915 393 ft 10 kts 176°
2026-04-20 05:22 23.15543 -109.71908 393 ft 12 kts 174°
2026-04-20 05:23 23.15452 -109.71898 393 ft 14 kts 174°
2026-04-20 05:23 23.15347 -109.71886 393 ft 16 kts 174°
2026-04-20 05:23 23.15228 -109.71872 393 ft 18 kts 174°
2026-04-20 05:23 23.15095 -109.71857 393 ft 20 kts 174°
2026-04-20 05:24 23.14979 -109.71843 392 ft 16 kts 174°
2026-04-20 05:24 23.14863 -109.71830 393 ft 18 kts 174°
2026-04-20 05:24 23.14735 -109.71816 393 ft 19 kts 174°
2026-04-20 05:24 23.14595 -109.71800 393 ft 21 kts 173°
2026-04-20 05:25 23.14447 -109.71783 393 ft 17 kts 173°
2026-04-20 05:25 23.14354 -109.71772 393 ft 13 kts 173°
2026-04-20 05:25 23.14256 -109.71761 393 ft 15 kts 174°
2026-04-20 05:25 23.14142 -109.71749 393 ft 17 kts 174°
2026-04-20 05:26 23.14031 -109.71736 393 ft 11 kts 173°
2026-04-20 05:26 23.13948 -109.71726 393 ft 13 kts 180°
2026-04-20 05:26 23.13894 -109.71785 391 ft 12 kts 251°
2026-04-20 05:26 23.13883 -109.71848 391 ft 7 kts 261°
2026-04-20 05:27 23.13881 -109.71904 394 ft 5 kts 287°
2026-04-20 05:27 23.13896 -109.71914 390 ft 3 kts 333°
2026-04-20 05:27 23.13922 -109.71924 391 ft 5 kts 346°
2026-04-20 05:27 23.13929 -109.71925 392 ft 0 kts 352°
2026-04-20 05:28 23.13930 -109.71925 392 ft 0 kts 354°
2026-04-20 05:29 23.14086 -109.71944 394 ft 58 kts 353°
2026-04-20 05:29 23.14709 -109.72017 394 ft 122 kts 354°
2026-04-20 05:29 23.15744 -109.72135 486 ft 167 kts 353°
2026-04-20 05:29 23.16873 -109.72257 1372 ft 154 kts 353°
2026-04-20 05:30 23.17965 -109.72385 1830 ft 166 kts 353°
2026-04-20 05:30 23.19179 -109.72526 2073 ft 185 kts 353°
2026-04-20 05:30 23.20538 -109.72687 2254 ft 208 kts 353°
2026-04-20 05:30 23.22025 -109.72862 2533 ft 227 kts 353°
2026-04-20 05:31 23.23664 -109.73053 2837 ft 246 kts 353°
2026-04-20 05:31 23.25415 -109.73318 3218 ft 259 kts 350°
2026-04-20 05:31 23.27192 -109.73768 3774 ft 266 kts 344°
2026-04-20 05:31 23.28963 -109.74449 4310 ft 272 kts 337°
2026-04-20 05:32 23.30653 -109.75346 4882 ft 276 kts 330°
2026-04-20 05:32 23.32279 -109.76474 5459 ft 279 kts 323°
2026-04-20 05:32 23.33794 -109.77809 6046 ft 281 kts 316°
2026-04-20 05:32 23.35169 -109.79334 6609 ft 283 kts 310°
2026-04-20 05:33 23.36381 -109.81028 7177 ft 284 kts 303°
2026-04-20 05:33 23.37414 -109.82868 7745 ft 285 kts 296°
2026-04-20 05:33 23.38332 -109.84784 8323 ft 286 kts 295°
2026-04-20 05:33 23.39225 -109.86700 8890 ft 289 kts 294°
2026-04-20 05:34 23.40134 -109.88651 9491 ft 290 kts 294°
2026-04-20 05:34 23.41051 -109.90622 10109 ft 292 kts 294°
2026-04-20 05:34 23.42970 -109.94725 10677 ft 317 kts 294°
2026-04-20 05:35 23.43998 -109.96905 10925 ft 329 kts 294°
2026-04-20 05:35 23.45062 -109.99164 11135 ft 341 kts 294°
2026-04-20 05:35 23.46161 -110.01490 11512 ft 346 kts 294°
2026-04-20 05:35 23.47272 -110.03832 11961 ft 349 kts 294°
2026-04-20 05:36 23.48375 -110.06161 12427 ft 351 kts 294°
2026-04-20 05:36 23.49495 -110.08532 12895 ft 353 kts 294°
2026-04-20 05:36 23.50628 -110.10931 13348 ft 355 kts 294°
2026-04-20 05:36 23.51764 -110.13336 13827 ft 357 kts 294°
2026-04-20 05:37 23.52908 -110.15745 14242 ft 359 kts 294°
2026-04-20 05:37 23.54280 -110.18042 14634 ft 366 kts 305°
2026-04-20 05:37 23.56002 -110.20070 15033 ft 370 kts 310°
2026-04-20 05:37 23.57840 -110.22048 15427 ft 372 kts 311°
2026-04-20 05:38 23.59700 -110.24028 15842 ft 374 kts 311°
2026-04-20 05:38 23.61567 -110.26024 16238 ft 376 kts 311°
2026-04-20 05:38 23.63416 -110.28011 16639 ft 378 kts 311°
2026-04-20 05:38 23.65294 -110.30036 17036 ft 379 kts 310°
2026-04-20 05:39 23.67128 -110.32017 17438 ft 381 kts 310°
2026-04-20 05:39 23.69018 -110.34061 17824 ft 383 kts 310°
2026-04-20 05:39 23.70915 -110.36116 18227 ft 385 kts 310°
2026-04-20 05:39 23.72822 -110.38182 18577 ft 387 kts 310°
2026-04-20 05:40 23.74745 -110.40267 18926 ft 389 kts 310°
2026-04-20 05:40 23.76667 -110.42351 19272 ft 390 kts 310°
2026-04-20 05:40 23.78602 -110.44452 19626 ft 392 kts 310°
2026-04-20 05:40 23.80518 -110.46532 19964 ft 394 kts 310°
2026-04-20 05:41 23.82465 -110.48647 20311 ft 395 kts 310°
2026-04-20 05:41 23.84419 -110.50769 20640 ft 397 kts 310°
2026-04-20 05:41 23.86386 -110.52908 20977 ft 398 kts 310°
2026-04-20 05:41 23.88358 -110.55053 21312 ft 400 kts 310°
2026-04-20 05:42 23.90335 -110.57204 21656 ft 401 kts 310°
2026-04-20 05:42 23.92367 -110.59270 21985 ft 405 kts 313°
2026-04-20 05:42 23.94516 -110.61281 22294 ft 408 kts 314°
2026-04-20 05:42 23.96715 -110.63259 22619 ft 410 kts 315°
2026-04-20 05:43 23.98934 -110.65231 22937 ft 412 kts 315°
2026-04-20 05:43 24.01160 -110.67223 23247 ft 413 kts 315°
2026-04-20 05:43 24.03383 -110.69238 23549 ft 415 kts 314°
2026-04-20 05:43 24.05602 -110.71274 23825 ft 416 kts 314°
2026-04-20 05:44 24.07786 -110.73295 24094 ft 416 kts 314°
2026-04-20 05:44 24.09992 -110.75347 24388 ft 416 kts 314°
2026-04-20 05:44 24.12200 -110.77406 24670 ft 417 kts 314°
2026-04-20 05:44 24.14412 -110.79471 24959 ft 417 kts 314°
2026-04-20 05:45 24.16620 -110.81533 25248 ft 417 kts 314°
2026-04-20 05:45 24.18839 -110.83605 25525 ft 418 kts 314°
2026-04-20 05:45 24.21047 -110.85667 25806 ft 418 kts 314°
2026-04-20 05:45 24.23242 -110.87716 26117 ft 418 kts 313°
2026-04-20 05:46 24.25454 -110.89782 26429 ft 418 kts 313°
2026-04-20 05:46 24.27669 -110.91854 26716 ft 419 kts 313°
2026-04-20 05:46 24.29893 -110.93934 27018 ft 420 kts 313°
2026-04-20 05:46 24.32120 -110.96018 27325 ft 420 kts 313°
2026-04-20 05:47 24.34345 -110.98099 27644 ft 421 kts 313°
2026-04-20 05:47 24.36573 -111.00185 27966 ft 421 kts 313°
2026-04-20 05:47 24.38807 -111.02276 28287 ft 422 kts 313°
2026-04-20 05:47 24.41043 -111.04372 28633 ft 423 kts 313°
2026-04-20 05:48 24.43259 -111.06448 28980 ft 423 kts 313°
2026-04-20 05:48 24.45501 -111.08552 29319 ft 424 kts 313°
2026-04-20 05:48 24.47753 -111.10667 29657 ft 425 kts 313°
2026-04-20 05:48 24.50006 -111.12783 30005 ft 426 kts 313°
2026-04-20 05:49 24.52256 -111.14897 30324 ft 427 kts 313°
2026-04-20 05:49 24.54514 -111.17021 30575 ft 429 kts 313°
2026-04-20 05:49 24.56789 -111.19162 30819 ft 431 kts 313°
2026-04-20 05:49 24.59078 -111.21316 31096 ft 433 kts 313°
2026-04-20 05:50 24.61367 -111.23471 31381 ft 435 kts 313°
2026-04-20 05:50 24.63648 -111.25619 31636 ft 437 kts 313°
2026-04-20 05:50 24.65968 -111.27804 31893 ft 439 kts 313°
2026-04-20 05:50 24.68295 -111.29997 32164 ft 441 kts 313°
2026-04-20 05:51 24.70633 -111.32202 32431 ft 443 kts 313°
2026-04-20 05:51 24.72950 -111.34388 32675 ft 445 kts 313°
2026-04-20 05:51 24.75306 -111.36613 32897 ft 447 kts 313°
2026-04-20 05:51 24.77674 -111.38851 33167 ft 448 kts 313°
2026-04-20 05:52 24.80043 -111.41089 33424 ft 450 kts 313°
2026-04-20 05:52 24.82429 -111.43346 33665 ft 452 kts 313°
2026-04-20 05:52 24.84816 -111.45605 33896 ft 454 kts 313°
2026-04-20 05:52 24.87215 -111.47877 34123 ft 455 kts 313°
2026-04-20 05:53 24.89628 -111.50162 34308 ft 457 kts 313°
2026-04-20 05:53 24.92011 -111.52421 34480 ft 459 kts 313°
2026-04-20 05:53 24.94446 -111.54730 34676 ft 461 kts 313°
2026-04-20 05:53 24.96885 -111.57043 34940 ft 460 kts 313°
2026-04-20 05:54 24.99290 -111.59324 35194 ft 461 kts 313°
2026-04-20 05:54 25.01728 -111.61639 35426 ft 461 kts 313°
2026-04-20 05:54 25.04164 -111.63953 35640 ft 462 kts 313°
2026-04-20 05:54 25.06600 -111.66269 35895 ft 462 kts 313°
2026-04-20 05:55 25.09041 -111.68591 36138 ft 463 kts 313°
2026-04-20 05:55 25.11496 -111.70928 36360 ft 464 kts 313°
2026-04-20 05:55 25.13939 -111.73254 36589 ft 464 kts 313°
2026-04-20 05:55 25.16355 -111.75557 36834 ft 465 kts 313°
2026-04-20 05:56 25.18803 -111.77892 37065 ft 465 kts 313°
2026-04-20 05:56 25.21258 -111.80233 37289 ft 466 kts 312°
2026-04-20 05:56 25.23719 -111.82582 37551 ft 466 kts 312°
2026-04-20 05:56 25.26174 -111.84926 37796 ft 466 kts 312°
2026-04-20 05:57 25.27794 -111.86474 37935 ft 467 kts 312°
2026-04-20 05:57 25.31178 -111.89474 38199 ft 472 kts 317°
2026-04-20 05:57 25.33861 -111.91599 38414 ft 474 kts 318°
2026-04-20 05:57 25.36574 -111.93690 38648 ft 475 kts 318°
2026-04-20 05:58 25.38373 -111.95058 38757 ft 476 kts 319°
2026-04-20 05:58 25.42035 -111.97829 38991 ft 477 kts 319°
2026-04-20 05:58 25.43852 -111.99203 39097 ft 477 kts 319°
2026-04-20 05:58 25.46584 -112.01275 39266 ft 477 kts 319°
2026-04-20 05:59 25.49333 -112.03364 39425 ft 478 kts 319°
2026-04-20 05:59 25.52071 -112.05452 39589 ft 478 kts 319°
2026-04-20 05:59 25.54817 -112.07549 39750 ft 478 kts 319°
2026-04-20 05:59 25.57556 -112.09645 39905 ft 479 kts 319°
2026-04-20 06:00 25.60305 -112.11750 40010 ft 481 kts 319°
2026-04-20 06:00 25.63064 -112.13864 40025 ft 483 kts 319°
2026-04-20 06:00 25.68564 -112.18078 40027 ft 482 kts 319°
2026-04-20 06:01 25.74083 -112.22311 40023 ft 482 kts 319°
2026-04-20 06:01 25.79632 -112.26577 40026 ft 489 kts 319°
2026-04-20 06:02 25.85231 -112.30886 40023 ft 494 kts 319°
2026-04-20 06:02 25.90904 -112.35252 40020 ft 496 kts 319°
2026-04-20 06:03 25.96560 -112.39607 40023 ft 496 kts 319°
2026-04-20 06:03 26.02234 -112.43984 40022 ft 496 kts 319°
2026-04-20 06:04 26.07903 -112.48363 40024 ft 496 kts 319°
2026-04-20 06:04 26.13550 -112.52732 40025 ft 496 kts 319°
2026-04-20 06:05 26.19152 -112.57072 40025 ft 496 kts 319°
2026-04-20 06:05 26.24810 -112.61460 40024 ft 496 kts 319°
2026-04-20 06:06 26.30454 -112.65841 40020 ft 496 kts 319°
2026-04-20 06:06 26.36116 -112.70242 40024 ft 496 kts 319°
2026-04-20 06:07 26.41794 -112.74661 40019 ft 496 kts 319°
2026-04-20 06:07 26.47432 -112.79054 40008 ft 496 kts 319°
2026-04-20 06:08 26.53096 -112.83474 40011 ft 496 kts 319°
2026-04-20 06:08 26.58749 -112.87888 40015 ft 496 kts 319°
2026-04-20 06:09 26.64410 -112.92315 40015 ft 496 kts 319°
2026-04-20 06:09 26.70047 -112.96730 40017 ft 496 kts 319°
2026-04-20 06:10 26.75703 -113.01167 40016 ft 496 kts 319°
2026-04-20 06:10 26.81363 -113.05610 40017 ft 496 kts 319°
2026-04-20 06:11 26.86987 -113.10029 40014 ft 496 kts 319°
2026-04-20 06:11 26.92647 -113.14483 40013 ft 496 kts 319°
2026-04-20 06:12 26.98301 -113.18939 40013 ft 496 kts 319°
2026-04-20 06:12 27.03922 -113.23373 40015 ft 496 kts 319°
2026-04-20 06:13 27.09585 -113.27845 40015 ft 496 kts 319°
2026-04-20 06:13 27.15197 -113.32285 40015 ft 496 kts 319°
2026-04-20 06:14 27.20855 -113.36766 40021 ft 496 kts 319°
2026-04-20 06:14 27.26506 -113.41247 40025 ft 497 kts 319°
2026-04-20 06:15 27.32125 -113.45709 40024 ft 497 kts 319°
2026-04-20 06:15 27.37784 -113.50208 40026 ft 497 kts 319°
2026-04-20 06:16 27.43430 -113.54701 40027 ft 497 kts 319°
2026-04-20 06:16 27.49042 -113.59173 40027 ft 497 kts 319°
2026-04-20 06:17 27.54696 -113.63684 40031 ft 497 kts 319°
2026-04-20 06:17 27.60344 -113.68197 40034 ft 497 kts 319°
2026-04-20 06:18 27.65958 -113.72689 40032 ft 497 kts 319°
2026-04-20 06:18 27.71609 -113.77216 40033 ft 497 kts 319°
2026-04-20 06:19 27.77216 -113.81713 40026 ft 497 kts 319°
2026-04-20 06:19 27.82851 -113.86238 40028 ft 497 kts 319°
2026-04-20 06:20 27.88469 -113.90757 40031 ft 497 kts 319°
2026-04-20 06:20 27.94114 -113.95302 40029 ft 497 kts 319°
2026-04-20 06:21 27.99727 -113.99828 40034 ft 497 kts 319°
2026-04-20 06:21 28.05395 -114.04368 40038 ft 498 kts 319°
2026-04-20 06:22 28.11190 -114.08733 40037 ft 500 kts 321°
2026-04-20 06:22 28.17000 -114.13020 40036 ft 500 kts 321°
2026-04-20 06:23 28.22842 -114.17358 40040 ft 500 kts 320°
2026-04-20 06:23 28.28619 -114.21677 40038 ft 500 kts 320°
2026-04-20 06:24 28.34429 -114.26036 40040 ft 500 kts 320°
2026-04-20 06:24 28.40239 -114.30402 40042 ft 500 kts 320°
2026-04-20 06:25 28.46052 -114.34775 40042 ft 501 kts 320°
2026-04-20 06:25 28.51825 -114.39123 40042 ft 501 kts 320°
2026-04-20 06:26 28.57655 -114.43519 40040 ft 501 kts 320°
2026-04-20 06:26 28.63436 -114.47884 40042 ft 501 kts 320°
2026-04-20 06:27 28.69258 -114.52286 40041 ft 501 kts 320°
2026-04-20 06:27 28.75041 -114.56665 40042 ft 501 kts 320°
2026-04-20 06:28 28.80858 -114.61075 40043 ft 501 kts 320°
2026-04-20 06:28 28.86680 -114.65496 40040 ft 502 kts 320°
2026-04-20 06:29 28.92464 -114.69893 40041 ft 502 kts 320°
2026-04-20 06:29 28.98280 -114.74320 40039 ft 502 kts 320°
2026-04-20 06:30 29.04097 -114.78754 40040 ft 502 kts 320°
2026-04-20 06:30 29.09882 -114.83171 40041 ft 502 kts 320°
2026-04-20 06:31 29.15704 -114.87622 40041 ft 502 kts 320°
2026-04-20 06:31 29.21487 -114.92050 40042 ft 502 kts 320°
2026-04-20 06:32 29.27308 -114.96512 40043 ft 502 kts 321°
2026-04-20 06:32 29.33082 -115.00943 40038 ft 502 kts 321°
2026-04-20 06:33 29.38887 -115.05405 40038 ft 502 kts 321°
2026-04-20 06:33 29.44706 -115.09885 40043 ft 502 kts 321°
2026-04-20 06:34 29.50462 -115.14322 40036 ft 502 kts 321°
2026-04-20 06:35 29.59170 -115.21048 40038 ft 502 kts 321°
2026-04-20 06:35 29.64932 -115.25504 40037 ft 502 kts 321°
2026-04-20 06:36 29.70723 -115.29992 40041 ft 502 kts 321°
2026-04-20 06:36 29.76528 -115.34494 40046 ft 502 kts 321°
2026-04-20 06:37 29.82285 -115.38965 40045 ft 501 kts 321°
2026-04-20 06:37 29.88020 -115.43426 40040 ft 501 kts 321°
2026-04-20 06:38 29.93802 -115.47930 40047 ft 501 kts 321°
2026-04-20 06:38 29.99569 -115.52429 40045 ft 500 kts 321°
2026-04-20 06:39 30.05341 -115.56938 40044 ft 500 kts 321°
2026-04-20 06:39 30.11064 -115.61416 40043 ft 499 kts 321°
2026-04-20 06:40 30.16833 -115.65936 40049 ft 499 kts 321°
2026-04-20 06:40 30.22548 -115.70420 40048 ft 498 kts 321°
2026-04-20 06:41 30.28297 -115.74937 40053 ft 498 kts 321°
2026-04-20 06:41 30.34010 -115.79432 40050 ft 497 kts 321°
2026-04-20 06:42 30.39659 -115.83878 40049 ft 485 kts 320°
2026-04-20 06:42 30.45205 -115.88256 40039 ft 481 kts 320°
2026-04-20 06:43 30.50735 -115.92635 40001 ft 480 kts 320°
2026-04-20 06:43 30.53473 -115.94770 39516 ft 479 kts 323°
2026-04-20 06:43 30.56461 -115.96557 38890 ft 485 kts 330°
2026-04-20 06:43 30.59555 -115.98174 38170 ft 486 kts 331°
2026-04-20 06:44 30.62640 -115.99764 37425 ft 486 kts 331°
2026-04-20 06:44 30.64731 -116.00842 36936 ft 486 kts 332°
2026-04-20 06:44 30.67789 -116.02417 36234 ft 485 kts 332°
2026-04-20 06:44 30.70874 -116.04007 35541 ft 483 kts 332°
2026-04-20 06:45 30.73958 -116.05594 34855 ft 482 kts 333°
2026-04-20 06:45 30.77022 -116.07169 34200 ft 479 kts 333°
2026-04-20 06:45 30.80037 -116.08718 33534 ft 476 kts 333°
2026-04-20 06:45 30.83055 -116.10268 32953 ft 470 kts 334°
2026-04-20 06:46 30.86046 -116.11806 32407 ft 465 kts 334°
2026-04-20 06:46 30.88955 -116.13306 31874 ft 460 kts 334°
2026-04-20 06:46 30.91875 -116.14815 31325 ft 455 kts 334°
2026-04-20 06:46 30.94774 -116.16316 30805 ft 451 kts 334°
2026-04-20 06:47 30.97591 -116.17776 30289 ft 447 kts 334°
2026-04-20 06:47 31.00420 -116.19243 29735 ft 442 kts 334°
2026-04-20 06:47 31.03219 -116.20696 29187 ft 437 kts 334°
2026-04-20 06:47 31.05988 -116.22134 28693 ft 432 kts 334°
2026-04-20 06:48 31.08689 -116.23538 28199 ft 427 kts 334°
2026-04-20 06:48 31.11387 -116.24941 27704 ft 422 kts 334°
2026-04-20 06:48 31.14065 -116.26335 27217 ft 418 kts 334°
2026-04-20 06:48 31.16716 -116.27716 26732 ft 414 kts 334°
2026-04-20 06:49 31.19344 -116.29085 26239 ft 411 kts 334°
2026-04-20 06:49 31.21950 -116.30444 25763 ft 408 kts 334°
2026-04-20 06:49 31.24536 -116.31793 25275 ft 406 kts 334°
2026-04-20 06:49 31.27083 -116.33123 24799 ft 403 kts 334°
2026-04-20 06:50 31.29646 -116.34462 24307 ft 402 kts 334°
2026-04-20 06:50 31.32198 -116.35797 23831 ft 399 kts 334°
2026-04-20 06:50 31.34693 -116.37102 23302 ft 398 kts 334°
2026-04-20 06:50 31.37243 -116.38435 22789 ft 394 kts 334°
2026-04-20 06:51 31.39704 -116.39723 22306 ft 391 kts 334°
2026-04-20 06:51 31.42180 -116.41021 21825 ft 388 kts 334°
2026-04-20 06:51 31.44640 -116.42310 21348 ft 386 kts 335°
2026-04-20 06:51 31.47081 -116.43594 20843 ft 384 kts 334°
2026-04-20 06:52 31.49524 -116.44876 20363 ft 383 kts 335°
2026-04-20 06:52 31.51958 -116.46150 19881 ft 381 kts 335°
2026-04-20 06:52 31.54378 -116.47418 19407 ft 380 kts 335°
2026-04-20 06:52 31.56787 -116.48682 18915 ft 379 kts 335°
2026-04-20 06:53 31.59202 -116.49951 18466 ft 376 kts 335°
2026-04-20 06:53 31.61560 -116.51189 17920 ft 376 kts 335°
2026-04-20 06:53 31.63949 -116.52445 17417 ft 374 kts 335°
2026-04-20 06:53 31.66315 -116.53690 16950 ft 371 kts 335°
2026-04-20 06:54 31.68669 -116.54930 16485 ft 369 kts 335°
2026-04-20 06:54 31.71010 -116.56163 16016 ft 367 kts 335°
2026-04-20 06:54 31.73313 -116.57376 15574 ft 366 kts 335°
2026-04-20 06:54 31.75631 -116.58599 15117 ft 364 kts 335°
2026-04-20 06:55 31.77948 -116.59822 14658 ft 363 kts 335°
2026-04-20 06:55 31.80250 -116.61036 14200 ft 362 kts 335°
2026-04-20 06:55 31.82577 -116.62159 13708 ft 360 kts 338°
2026-04-20 06:55 31.84882 -116.63205 13248 ft 358 kts 338°
2026-04-20 06:56 31.87204 -116.64255 12798 ft 355 kts 339°
2026-04-20 06:56 31.89508 -116.65297 12356 ft 353 kts 339°
2026-04-20 06:56 31.91800 -116.66340 11901 ft 351 kts 338°
2026-04-20 06:56 31.94072 -116.67380 11473 ft 349 kts 338°
2026-04-20 06:57 31.96323 -116.68415 11037 ft 347 kts 338°
2026-04-20 06:57 31.98558 -116.69445 10606 ft 345 kts 338°
2026-04-20 06:57 32.00751 -116.70458 10446 ft 332 kts 338°
2026-04-20 06:57 32.02865 -116.71436 10322 ft 319 kts 338°
2026-04-20 06:58 32.04867 -116.72362 10192 ft 307 kts 338°
2026-04-20 06:58 32.06820 -116.73267 10068 ft 296 kts 338°
2026-04-20 06:58 32.08707 -116.74147 9925 ft 286 kts 338°
2026-04-20 06:58 32.10552 -116.75008 9598 ft 283 kts 338°
2026-04-20 06:59 32.12375 -116.75857 9299 ft 280 kts 338°
2026-04-20 06:59 32.14220 -116.76597 9009 ft 278 kts 345°
2026-04-20 06:59 32.16104 -116.76934 8748 ft 277 kts 358°
2026-04-20 06:59 32.18021 -116.76784 8479 ft 275 kts 11°
2026-04-20 07:00 32.19855 -116.76156 8220 ft 273 kts 22°
2026-04-20 07:00 32.21592 -116.75253 7950 ft 271 kts 26°
2026-04-20 07:00 32.23300 -116.74311 7685 ft 270 kts 26°
2026-04-20 07:00 32.24982 -116.73384 7425 ft 269 kts 26°
2026-04-20 07:01 32.26673 -116.72456 7160 ft 268 kts 26°
2026-04-20 07:01 32.28364 -116.71538 6934 ft 266 kts 26°
2026-04-20 07:01 32.30043 -116.70632 6733 ft 265 kts 26°
2026-04-20 07:01 32.31731 -116.69714 6536 ft 265 kts 26°
2026-04-20 07:02 32.33383 -116.68815 6368 ft 262 kts 26°
2026-04-20 07:02 32.35068 -116.68122 6198 ft 253 kts
2026-04-20 07:02 32.36760 -116.68391 6070 ft 242 kts 340°
2026-04-20 07:02 32.38220 -116.69115 5933 ft 234 kts 335°
2026-04-20 07:03 32.39681 -116.69909 5782 ft 226 kts 335°
2026-04-20 07:03 32.40986 -116.70618 5591 ft 223 kts 335°
2026-04-20 07:03 32.42372 -116.71364 5372 ft 221 kts 335°
2026-04-20 07:03 32.43690 -116.72306 5030 ft 220 kts 312°
2026-04-20 07:04 32.44398 -116.73847 4780 ft 212 kts 287°
2026-04-20 07:04 32.44808 -116.75503 4476 ft 208 kts 283°
2026-04-20 07:04 32.45181 -116.77145 4179 ft 205 kts 282°
2026-04-20 07:04 32.45549 -116.78758 3924 ft 200 kts 283°
2026-04-20 07:05 32.45922 -116.80323 3655 ft 196 kts 284°
2026-04-20 07:05 32.46293 -116.81767 3410 ft 187 kts 288°
2026-04-20 07:05 32.46852 -116.83147 3155 ft 176 kts 302°
2026-04-20 07:05 32.47618 -116.84206 2928 ft 163 kts 317°
2026-04-20 07:06 32.48517 -116.84945 2732 ft 152 kts 331°
2026-04-20 07:06 32.49452 -116.85420 2530 ft 143 kts 339°
2026-04-20 07:06 32.50377 -116.85821 2356 ft 141 kts 340°
2026-04-20 07:06 32.51272 -116.86302 2168 ft 141 kts 330°
2026-04-20 07:07 32.52049 -116.87016 1975 ft 142 kts 316°
2026-04-20 07:07 32.52647 -116.87934 1782 ft 141 kts 301°
2026-04-20 07:07 32.53035 -116.88993 1602 ft 140 kts 287°
2026-04-20 07:07 32.53230 -116.90120 1439 ft 139 kts 279°
2026-04-20 07:08 32.53371 -116.91249 1235 ft 138 kts 278°
2026-04-20 07:08 32.53509 -116.92363 1069 ft 136 kts 278°
2026-04-20 07:08 32.53649 -116.93456 967 ft 135 kts 278°
2026-04-20 07:08 32.53794 -116.94599 721 ft 140 kts 278°
2026-04-20 07:09 32.53939 -116.95713 509 ft 134 kts 279°
2026-04-20 07:09 32.54073 -116.96740 470 ft 114 kts 279°
2026-04-20 07:09 32.54182 -116.97571 469 ft 91 kts 279°
2026-04-20 07:09 32.54271 -116.98241 475 ft 67 kts 279°
2026-04-20 07:10 32.54298 -116.98444 481 ft 4 kts 279°
2026-04-20 07:10 32.54303 -116.98485 483 ft 6 kts 279°
2026-04-20 07:10 32.54324 -116.98520 479 ft 5 kts 324°
2026-04-20 07:10 32.54371 -116.98528 482 ft 11 kts
2026-04-20 07:11 32.54425 -116.98510 475 ft 6 kts 32°
2026-04-20 07:11 32.54454 -116.98453 473 ft 10 kts 69°
2026-04-20 07:11 32.54453 -116.98362 473 ft 12 kts 98°
2026-04-20 07:11 32.54439 -116.98251 475 ft 13 kts 100°
2026-04-20 07:12 32.54438 -116.98244 477 ft 0 kts 100°
2026-04-20 07:12 32.54437 -116.98240 476 ft 3 kts 100°
2026-04-20 07:12 32.54430 -116.98190 472 ft 9 kts 99°
2026-04-20 07:13 32.54419 -116.98107 475 ft 12 kts 99°
2026-04-20 07:13 32.54404 -116.97997 477 ft 15 kts 99°
2026-04-20 07:13 32.54391 -116.97905 477 ft 9 kts 99°
2026-04-20 07:13 32.54385 -116.97864 474 ft 0 kts 99°
2026-04-20 07:14 32.54384 -116.97855 470 ft 5 kts 99°
2026-04-20 07:14 32.54394 -116.97807 473 ft 6 kts 53°
2026-04-20 07:14 32.54434 -116.97798 473 ft 7 kts 344°
2026-04-20 07:14 32.54469 -116.97784 470 ft 5 kts 55°
2026-04-20 07:15 32.54484 -116.97750 471 ft 0 kts 62°